This demonstration page uses our WeatherBlox Daily Observations layout. Learn more.

Left ArrowRight Arrow

39.08367, -84.50855

Hourly Observations for September 7, 2017

Temp ( °F °C ) Dew Point ( °F °C ) Humidity (%) Winds ( mph kmh ) Pressure ( in mb ) Visibility ( mi km ) Precip ( " mm )
12:53 am 00:53 Clear 51 10.6 50 10 96 96 S 3 6 30.05 1018 10 16 N/A
1:53 am 01:53 Partly Cloudy 51 10.6 50 10 96 96 N N/A 30.05 1018 10 16 N/A
2:53 am 02:53 Clear 50 10 50 10 100 100 N N/A 30.05 1018 10 16 N/A
3:53 am 03:53 Clear 49 9.4 49 9.4 100 100 N N/A 30.05 1018 10 16 N/A
4:53 am 04:53 Clear 48 8.9 48 8.9 100 100 SW 6 9 30.05 1018 10 16 N/A
5:53 am 05:53 Clear 48 8.9 48 8.9 100 100 N N/A 30.06 1018 10 16 N/A
6:53 am 06:53 Clear 46 7.8 46 7.8 100 100 N N/A 30.06 1018 10 16 N/A
7:53 am 07:53 Sunny 50 10 49 9.4 96 96 SSW 7 11 30.08 1019 10 16 N/A
8:53 am 08:53 Sunny 55 12.8 51 10.6 87 87 S 3 6 30.09 1019 10 16 N/A
9:53 am 09:53 Sunny 60 15.6 51 10.6 72 72 WSW 7 11 30.10 1019 10 16 N/A
10:53 am 10:53 Sunny 64 17.8 50 10 60 60 WNW 10 17 30.10 1019 10 16 N/A
11:53 am 11:53 Sunny 67 19.4 49 9.4 53 53 W 13 20 30.11 1020 10 16 N/A
12:53 pm 12:53 Partly Cloudy 68 20 48 8.9 49 49 W 10 17 30.10 1019 10 16 N/A
1:53 pm 13:53 Partly Cloudy 66 18.9 47 8.3 50 50 W 7 11 30.10 1019 10 16 N/A
2:53 pm 14:53 Mostly Cloudy 70 21.1 49 9.4 47 47 WSW 16 26 30.09 1019 10 16 N/A
3:53 pm 15:53 Mostly Cloudy 67 19.4 48 8.9 51 51 WSW 14 22 30.09 1019 10 16 N/A
4:53 pm 16:53 Mostly Cloudy 68 20 48 8.9 49 49 WSW 9 15 30.09 1019 10 16 N/A
5:53 pm 17:53 Mostly Cloudy 69 20.6 48 8.9 47 47 WSW 14 22 30.08 1019 10 16 N/A
6:53 pm 18:53 Mostly Cloudy 67 19.4 49 9.4 53 53 W 6 9 30.08 1019 10 16 N/A
7:53 pm 19:53 Mostly Cloudy 64 17.8 48 8.9 56 56 WSW 8 13 30.08 1019 10 16 N/A
8:53 pm 20:53 Cloudy 60 15.6 52 11.1 75 75 S 7 11 30.11 1020 10 16 N/A
9:53 pm 21:53 Clear 56 13.3 51 10.6 84 84 N N/A 30.12 1020 10 16 N/A
10:53 pm 22:53 Clear 55 12.8 52 11.1 90 90 N N/A 30.13 1020 10 16 N/A
11:53 pm 23:53 Clear 52 11.1 52 11.1 100 100 N N/A 30.14 1021 10 16 N/A

Powered by AerisWeather